Location: �perlecques
(50.8057°N, 2.1521°E)
Time: 20:58:35
(UTC+00:00)

Tiros 1 - Pass Details

Date: 09 August 2021
Orbit: 630 x 663 km, 48.4° (Epoch: 28 September)

Event Time Altitude Azimuth Distance (km) Brightness Sun altitude
Rises 18:05:03 0° 270° (W) 2,992 12.5 10.8°
Reaches altitude 10° 18:07:25 10° 268° (W) 2,076 11.8 10.4°
Maximum altitude 18:12:09 64° 187° (S) 729 7.6 9.7°
Drops below altitude 10° 18:16:51 10° 107° (ESE) 2,056 9.1 9.0°
Sets 18:19:11 0° 104° (ESE) 2,960 9.9 8.6°
